TimeCDT,TemperatureF,Dew PointF,Humidity,Sea Level PressureIn,VisibilityMPH,Wind Direction,Wind SpeedMPH,Gust SpeedMPH,PrecipitationIn,Events,Conditions,WindDirDegrees,DateUTC
12:45 AM,68,38,22,29.60,6,SE,4.5,,,,,140,2012-10-26 05:45:00
12:45 AM,57.2,39.2,51,30.19,7.0,ENE,6.9,-,N/A,,Clear,70,2012-10-26 05:45:00
1:45 AM,51.8,39.2,62,30.19,7.0,East,6.9,-,N/A,,Clear,80,2012-10-26 06:45:00
2:45 AM,51.8,41.0,67,30.19,7.0,ENE,8.1,-,N/A,,Clear,70,2012-10-26 07:45:00
3:35 AM,65,39,27,29.68,6,SE,2.2,,,,,140,2012-10-26 08:35:00
3:45 AM,50.0,37.4,62,30.18,7.0,East,5.8,-,N/A,,Clear,80,2012-10-26 08:45:00
4:40 AM,48.2,33.8,58,30.18,7.0,West,2.3,-,N/A,,Clear,280,2012-10-26 09:40:00
5:45 AM,46.4,35.6,66,30.18,7.0,Calm,Calm,-,N/A,,Clear,0,2012-10-26 10:45:00
6:45 AM,44.6,37.4,76,30.20,7.0,Calm,Calm,-,N/A,,Clear,0,2012-10-26 11:45:00
6:50 AM,56,35,32,29.74,6,South,2.2,,,,,180,2012-10-26 11:50:00
7:45 AM,44.6,39.2,81,30.16,7.0,Calm,Calm,-,N/A,,Clear,0,2012-10-26 12:45:00
8:45 AM,53.6,41.0,62,30.22,6.0,Calm,Calm,-,N/A,,Clear,0,2012-10-26 13:45:00
9:45 AM,59.0,41.0,51,30.22,7.0,SE,9.2,-,N/A,,Clear,130,2012-10-26 14:45:00
9:50 AM,65,42,31,29.83,12,NNW,2.2,,,,,330,2012-10-26 14:50:00
10:45 AM,66.2,42.8,43,30.24,7.0,East,11.5,-,N/A,,Clear,80,2012-10-26 15:45:00
11:45 AM,73.4,41.0,31,30.24,-9999.0,South,5.8,-,N/A,,Clear,170,2012-10-26 16:45:00
12:45 PM,77.0,41.0,28,30.24,7.0,Calm,Calm,-,N/A,,Clear,0,2012-10-26 17:45:00
12:52 PM,80,30,8,29.78,16,ENE,4.5,,,,,60,2012-10-26 17:52:00
1:45 PM,78.8,39.2,24,30.22,7.0,SE,6.9,-,N/A,,Clear,140,2012-10-26 18:45:00
2:46 PM,82.4,46.4,28,30.18,7.0,East,11.5,-,N/A,,Clear,90,2012-10-26 19:46:00
3:45 PM,87,37,9,29.62,16,ENE,4.5,,,,,70,2012-10-26 20:45:00
3:45 PM,82.4,46.4,28,30.15,7.0,ENE,16.1,-,N/A,,Clear,60,2012-10-26 20:45:00
4:45 PM,80.6,44.6,28,30.13,7.0,NE,16.1,-,N/A,,Clear,40,2012-10-26 21:45:00
5:45 PM,78.8,44.6,30,30.12,7.0,ENE,17.3,-,N/A,,Clear,60,2012-10-26 22:45:00
6:45 PM,77.0,42.8,29,30.13,7.0,NE,19.6,-,N/A,,Clear,40,2012-10-26 23:45:00
6:55 PM,76,43,20,29.58,16,NE,11.2,,,,,50,2012-10-26 23:55:00
7:45 PM,68.0,46.4,46,30.18,7.0,NNE,23.0,-,N/A,,Clear,30,2012-10-27 00:45:00
8:45 PM,64.4,42.8,45,30.20,7.0,ENE,13.8,-,N/A,,Clear,70,2012-10-27 01:45:00
9:45 PM,62.6,46.4,55,30.28,7.0,ENE,13.8,-,N/A,,Clear,70,2012-10-27 02:45:00
9:55 PM,64,50,50,29.63,12,SE,13.4,,,,,140,2012-10-27 02:55:00
10:45 PM,62.6,44.6,52,30.28,7.0,ENE,16.1,-,N/A,,Clear,70,2012-10-27 03:45:00
11:45 PM,57.2,48.2,72,30.30,7.0,East,6.9,-,N/A,,Clear,80,2012-10-27 04:45:00